Location: Charlottesville
(38.0290°N, 78.4770°W)
Time: 06:24:41
(UTC-05:00)

Vanguard 2 Rocket - Visible Passes

Search period start: 25 February 2018 00:00
Search period end: 07 March 2018 00:00
Orbit: 555 x 3327 km, 32.9° (Epoch: 24 February)

Date Brightness Start Highest point End Pass type
(mag) Time Alt. Az. Time Alt. Az. Time Alt. Az.
25 Feb 10.1 02:00:20 38° SE 02:00:20 38° SE 02:10:45 10° ESE visible
25 Feb 9.7 04:06:10 41° SW 04:07:59 42° SSW 04:25:30 10° SSE visible
25 Feb 10.6 06:14:11 10° WSW 06:23:33 15° SW 06:32:31 10° SSW visible
25 Feb 8.6 20:11:40 10° SSW 20:18:21 34° SE 20:18:21 34° SE visible
25 Feb 9.8 22:22:35 10° WSW 22:24:11 18° WSW 22:24:11 18° WSW visible
26 Feb 10.7 01:04:32 20° ESE 01:04:32 20° ESE 01:08:52 10° ESE visible
26 Feb 9.8 03:10:23 46° S 03:10:23 46° S 03:25:22 10° SE visible
26 Feb 10.2 05:16:14 20° WSW 05:22:47 23° SW 05:36:08 10° S visible
26 Feb 8.9 19:14:18 10° S 19:19:28 21° SE 19:22:31 18° ESE visible
26 Feb 8.8 21:23:48 10° SW 21:28:21 39° SW 21:28:21 39° SW visible
27 Feb10.600:08:48ESE00:08:48ESE23:34:11Wvisible
27 Feb 10.1 02:14:39 35° SE 02:14:39 35° SE 02:24:25 10° SE visible
27 Feb 10.0 04:20:29 32° SW 04:21:41 32° SW 04:37:43 10° SSE visible
27 Feb 8.3 20:25:25 10° SW 20:32:24 45° SSE 20:32:29 45° SSE visible
27 Feb 9.8 22:36:59 10° WSW 22:38:18 17° WSW 22:38:18 17° WSW visible
28 Feb 10.7 01:18:56 19° ESE 01:18:56 19° ESE 01:22:49 10° ESE visible
28 Feb 10.0 03:24:47 36° S 03:24:47 36° S 03:38:08 10° SSE visible
28 Feb 10.5 05:30:38 13° WSW 05:36:21 15° SW 05:45:17 10° SSW visible
28 Feb 8.4 19:27:28 10° SSW 19:33:07 31° SE 19:36:34 24° ESE visible
28 Feb 8.8 21:38:06 10° WSW 21:42:23 39° SW 21:42:23 39° SW visible
01 Mar10.700:23:16ESE00:23:16ESE23:48:13Wvisible
01 Mar 10.3 02:29:07 29° SSE 02:29:07 29° SSE 02:37:38 10° SE visible
01 Mar 10.3 04:34:58 22° SW 04:35:24 22° SW 04:48:45 10° S visible
01 Mar 8.7 18:30:17 10° S 18:34:14 18° SE 18:39:33 10° E visible
01 Mar 8.0 20:39:30 10° SW 20:46:26 55° SSE 20:46:26 55° SSE visible
01 Mar 9.9 22:51:29 10° W 22:52:16 14° W 22:52:16 14° W visible
02 Mar 10.7 01:33:26 16° SE 01:33:26 16° SE 01:36:24 10° SE visible
02 Mar 10.2 03:39:18 27° SSW 03:39:18 27° SSW 03:50:04 10° SSE visible
02 Mar 8.0 19:41:13 10° SW 19:47:02 41° SSE 19:50:27 30° ESE visible
02 Mar 8.9 21:52:32 10° WSW 21:56:16 35° WSW 21:56:16 35° WSW visible
03 Mar 10.5 02:43:37 23° SSE 02:43:37 23° SSE 02:50:13 10° SSE visible
03 Mar 10.6 04:49:28 14° SW 04:49:28 14° SW 04:57:10 10° SSW visible
03 Mar 8.2 18:43:22 10° SSW 18:47:59 27° SE 18:54:25 11° E visible
03 Mar 7.9 20:53:50 10° WSW 21:00:15 61° S 21:00:15 61° S visible
03 Mar 10.1 23:06:01 10° W 23:06:04 10° W 23:06:04 10° W visible
04 Mar 10.8 01:47:56 13° SE 01:47:56 13° SE 01:49:28 10° SE visible
04 Mar 10.5 03:53:47 18° SSW 03:53:47 18° SSW 04:00:42 10° S visible
04 Mar 7.7 19:55:21 10° SW 20:01:11 51° SSE 20:04:12 37° ESE visible
04 Mar 9.1 22:07:02 10° W 22:10:00 29° WSW 22:10:00 29° WSW visible
05 Mar 10.7 02:58:04 16° S 02:58:04 16° S 03:01:52 10° SSE visible
05 Mar 7.8 18:57:08 10° SW 19:02:00 37° SSE 19:08:07 15° E visible
05 Mar 7.9 21:08:17 10° WSW 21:13:56 59° SW 21:13:56 59° SW visible
06 Mar 7.6 20:09:41 10° WSW 20:15:31 58° S 20:17:50 45° ESE visible
06 Mar 9.4 22:21:36 10° W 22:23:39 22° W 22:23:39 22° W visible
